NOAA 16 DEB, 41080

Orbit data source: Space-Track

NOAA 16 DEB, 41080 is space debris in SSO originally from a launch on Thu, 21 Sep 2000 UTC launched from the Air Force Western Test Range (AFWTR). Debris objects in space refer to the collection of defunct objects orbiting the Earth. Examples of debris include non-operational satellites, rocket bodies, and fragments generated from explosions, collisions, or faulty payload assembly.

Loading next visibility...
Identifier
41080, 2000-055AP
Orbit
SSO
Country
Flag of USUS
Related business
Manufacturer
Unknown
Mission
Spacecraft
Bus & Motor
Unknown
Mass
Unknown
Launch date (UTC)
2000-09-21 (25 years ago)
Launch vehicle
Unknown
Launch site
Air Force Western Test Range (AFWTR)
Object type
Payload
Rocket body
Debris
Shape & HBR
Unknown shape, 0.1 m
Radar Cross Section
Small (<0.1 m²)

Expand to show TLE details & history
Last TLE update: 5 days ago

TLE from 5 days ago
0 NOAA 16 DEB
1 41080U 00055AP  25308.05500982  .00003425  00000-0  15524-2 0  9993
2 41080  98.5460 352.6855 0007234 173.3467 186.7809 14.22529671512868
Epoch: 2025-11-04T01:19Z
TLE epoch observation values (Epoch: 2025-11-04T01:19:12.848Z)
Latitude
0.00001°
Longitude
-70.66557°
Altitude
824.903 km
Speed
7.438 km/s
True Right ascension
23h 30m 44s
True Declination
0° 00' 00"
Sunlit
Object was in full shadow at epoch
Visualization orbit readout
Latitude
Unknown
Longitude
Unknown
Altitude
Unknown
Speed
Unknown
Apparent Right ascension
Unknown
Apparent Declination
Unknown
Sunlit
N/A
Visualization observer readout
Local Sidereal Time
09:00:20
Azimuth
Unknown
Elevation
Unknown
Doppler factor
Unknown
Orbital elements
Apogee altitude
819.161 km
Perigee altitude
808.755 km
Semi-major axis
7,192.095 km
Eccentricity
0.00072
Inclination
98.546°
RAAN
352.6855°
Arg. of periapsis
173.3467°
True anomaly
186.77112°
Mean anomaly
186.7809°
Eccentric anomaly
186.77601°
Mean motion
3.55844 °/min
Orbital period
101.17 mins
BSTAR
0.0015524
Loading maneuver chart data...
Computing Atmospheric mass density...
Loading historical data...
Loading historical data...
Loading historical data...
Loading historical data...
Loading historical data...
Loading historical data...
Loading historical data...

Documentation

Showing up to 5 results
|